Woensdrecht, Netherlands

1:11 AM CEST on May 01, 2017 (GMT +0200)
Woensdrecht Air Base

Weather History for EHWO - September, 2013

Change the Weather History Date:

Saturday, September 14, 2013

  Actual Average Record
Temperature  
Mean Temperature 56 °F -  
Max Temperature 62 °F 62 °F 87 °F (2016)
Min Temperature 50 °F 48 °F 39 °F (2008)
Degree Days  
Heating Degree Days 9    
Growing Degree Days 6 (Base 50)    
Moisture  
Dew Point 58 °F    
Average Humidity 92    
Maximum Humidity 100    
Minimum Humidity 68    
Precipitation  
Precipitation 0.00 in - - ()
Sea Level Pressure  
Sea Level Pressure 29.87 in    
Wind  
Wind Speed 8 mph ()    
Max Wind Speed 18 mph    
Max Gust Speed 31 mph    
Visibility 5.1 miles    
Events Rain    
Averages and records for this station are not official NWS values.
T = Trace of Precipitation, MM = Missing Value Source: Averaged Metar Reports

Daily Weather History Graph

Daily Weather History Graph

Search for Another Location

Airport or City:

Trip Planner

Search our weather history database for the weather conditions in past years. The results will help you decide how hot, cold, wet, or windy it might be!

Date:

Astronomy

Sep. 14, 2013 Rise Set
Actual Time 7:16 AM CEST 7:59 PM CEST
Civil Twilight 6:42 AM CEST 8:32 PM CEST
Nautical Twilight 6:02 AM CEST 9:13 PM CEST
Astronomical Twilight 5:19 AM CEST 9:55 PM CEST
Moon 4:54 PM CEST (9/14) 1:01 AM CEST (9/14)
Length of Visible Light 13h 50m
Length of Day
12h 43m
Waxing Gibbous, 69% of the Moon is Illuminated
Sep 14
Waxing Gibbous
Sep 19
Full
Sep 27
Last Quarter
Oct 5
New
Oct 12
First Quarter

Hourly Weather History & Observations

Time (CEST) Temp. Dew Point Humidity Pressure Visibility Wind Dir Wind Speed Gust Speed Precip Events Conditions
12:01 AM 62.6 °F 60.8 °F 94% 29.98 in 3.7 mi SW 9.2 mph - N/A   Mostly Cloudy
12:05 AM 62.6 °F 60.8 °F 94% 29.98 in 3.7 mi SW 9.2 mph - N/A   Overcast
12:14 AM 62.6 °F 60.8 °F 94% 29.98 in 3.7 mi SW 9.2 mph - N/A Rain Rain
12:25 AM 62.6 °F 60.8 °F 94% 29.98 in 3.7 mi SW 9.2 mph - N/A Rain Light Rain
12:29 AM 62.6 °F 60.8 °F 94% 29.98 in 5.0 mi SW 9.2 mph - N/A   Mostly Cloudy
12:32 AM 62.6 °F 60.8 °F 94% 29.98 in 4.3 mi SW 9.2 mph - N/A   Mostly Cloudy
12:34 AM 62.6 °F 60.8 °F 94% 29.98 in 4.3 mi SW 8.1 mph - N/A   Mostly Cloudy
12:41 AM 62.6 °F 60.8 °F 94% 29.98 in 4.3 mi SW 9.2 mph - N/A   Mostly Cloudy
12:55 AM 62.6 °F 60.8 °F 94% 29.95 in 4.3 mi SW 8.1 mph - N/A   Overcast
12:56 AM 62.6 °F 60.8 °F 94% 29.95 in 5.0 mi SW 8.1 mph - N/A   Overcast
1:00 AM 62.6 °F 60.8 °F 94% 29.95 in 5.0 mi SW 8.1 mph - N/A   Mostly Cloudy
1:25 AM 60.8 °F 60.8 °F 100% 29.95 in 5.0 mi SW 6.9 mph - N/A   Mostly Cloudy
1:28 AM 60.8 °F 60.8 °F 100% 29.95 in 5.0 mi SW 8.1 mph - N/A   Overcast
1:43 AM 60.8 °F 60.8 °F 100% 29.95 in 5.6 mi SW 6.9 mph - N/A   Mostly Cloudy
1:45 AM 60.8 °F 60.8 °F 100% 29.95 in 5.6 mi SW 6.9 mph - N/A   Overcast
1:55 AM 60.8 °F 60.8 °F 100% 29.95 in 5.6 mi SW 6.9 mph - N/A   Overcast
2:02 AM 60.8 °F 60.8 °F 100% 29.95 in 5.6 mi SSW 6.9 mph - N/A Rain Rain
2:04 AM 60.8 °F 60.8 °F 100% 29.95 in 5.0 mi SSW 6.9 mph - N/A Rain Rain
2:25 AM 60.8 °F 60.8 °F 100% 29.92 in 4.3 mi SW 8.1 mph - N/A Rain Light Rain Showers
2:55 AM 60.8 °F 60.8 °F 100% 29.92 in 3.7 mi SSW 8.1 mph - N/A Rain Light Rain
3:04 AM 60.8 °F 60.8 °F 100% 29.92 in 4.3 mi SW 9.2 mph - N/A Rain Light Rain
3:11 AM 60.8 °F 60.8 °F 100% 29.92 in 4.3 mi SW 8.1 mph - N/A Rain Light Rain
3:25 AM 62.6 °F 60.8 °F 94% 29.92 in 5.0 mi SSW 8.1 mph - N/A Rain Light Rain
3:28 AM 62.6 °F 60.8 °F 94% 29.89 in 5.0 mi SSW 8.1 mph - N/A Rain Light Rain
3:30 AM 62.6 °F 60.8 °F 94% 29.89 in 4.3 mi SSW 6.9 mph - N/A Rain Rain
3:43 AM 62.6 °F 60.8 °F 94% 29.89 in 5.6 mi SSW 6.9 mph - N/A   Drizzle
3:47 AM 62.6 °F 60.8 °F 94% 29.89 in 5.6 mi SSW 8.1 mph - N/A   Drizzle
3:55 AM 62.6 °F 60.8 °F 94% 29.89 in 5.6 mi SSW 8.1 mph - N/A   Drizzle
3:56 AM 62.6 °F 60.8 °F 94% 29.89 in 5.6 mi SSW 6.9 mph - N/A   Light Drizzle
4:03 AM 62.6 °F 60.8 °F 94% 29.89 in 6.2 mi SSW 6.9 mph - N/A   Mostly Cloudy
4:25 AM 62.6 °F 60.8 °F 94% 29.89 in 6.2 mi SSW 10.4 mph - N/A Rain Light Drizzle
4:35 AM 62.6 °F 60.8 °F 94% 29.89 in 4.3 mi SW 9.2 mph - N/A Rain Rain
4:55 AM 62.6 °F 60.8 °F 94% 29.86 in 6.2 mi SSW 6.9 mph - N/A   Drizzle
4:56 AM 62.6 °F 60.8 °F 94% 29.86 in 6.2 mi SSW 6.9 mph - N/A   Drizzle
5:10 AM 62.6 °F 60.8 °F 94% 29.86 in 5.6 mi SSW 6.9 mph - N/A   Drizzle
5:25 AM 62.6 °F 60.8 °F 94% 29.86 in 6.2 mi SSW 6.9 mph - N/A Rain Light Rain
5:29 AM 62.6 °F 60.8 °F 94% 29.86 in 6.2 mi SSW 6.9 mph - N/A Rain Light Rain
5:36 AM 62.6 °F 60.8 °F 94% 29.86 in 6.2 mi SSW 6.9 mph - N/A Rain Light Rain Showers
5:51 AM 62.6 °F 60.8 °F 94% 29.86 in 6.2 mi SSW 8.1 mph - N/A Rain Light Rain
5:55 AM 62.6 °F 60.8 °F 94% 29.86 in 6.2 mi South 6.9 mph - N/A Rain Light Rain
6:01 AM 62.6 °F 60.8 °F 94% 29.83 in 3.7 mi South 6.9 mph - N/A Rain Light Rain
6:14 AM 60.8 °F 60.8 °F 100% 29.83 in 5.0 mi South 5.8 mph - N/A Rain Light Rain
6:17 AM 60.8 °F 60.8 °F 100% 29.83 in 3.1 mi South 6.9 mph - N/A Rain Rain
6:25 AM 60.8 °F 60.8 °F 100% 29.83 in - South 6.9 mph - N/A Rain Rain
6:32 AM 60.8 °F 60.8 °F 100% 29.83 in - South 6.9 mph - N/A Rain Rain
6:39 AM 60.8 °F 60.8 °F 100% 29.83 in 3.1 mi South 6.9 mph - N/A Rain Rain
6:55 AM 62.6 °F 60.8 °F 94% 29.83 in 5.0 mi SSW 8.1 mph 19.6 mph N/A Rain Light Rain
6:59 AM 62.6 °F 60.8 °F 94% 29.83 in 4.3 mi SSW 8.1 mph 19.6 mph N/A Rain Light Rain
7:04 AM 62.6 °F 60.8 °F 94% 29.83 in 3.7 mi SSW 8.1 mph 19.6 mph N/A Rain Light Rain Showers
7:10 AM 62.6 °F 60.8 °F 94% 29.83 in - South 8.1 mph - N/A Rain Light Rain Showers
7:14 AM 62.6 °F 60.8 °F 94% 29.83 in 3.1 mi SSW 6.9 mph - N/A Rain Rain
7:15 AM 62.6 °F 60.8 °F 94% 29.80 in 3.1 mi South 6.9 mph - N/A Rain Light Rain
7:25 AM 62.6 °F 60.8 °F 94% 29.80 in 3.7 mi South 8.1 mph - N/A Rain Light Rain Showers
7:29 AM 62.6 °F 60.8 °F 94% 29.80 in - SSW 8.1 mph - N/A Rain Rain Showers
7:30 AM 62.6 °F 60.8 °F 94% 29.80 in 3.1 mi SSW 6.9 mph - N/A Rain Rain
7:37 AM 62.6 °F 60.8 °F 94% 29.80 in 3.7 mi SSW 6.9 mph - N/A Rain Rain
7:55 AM 62.6 °F 60.8 °F 94% 29.80 in 3.7 mi SW 10.4 mph 21.9 mph N/A Rain Light Rain Showers
8:02 AM 60.8 °F 60.8 °F 100% 29.80 in - SW 12.7 mph - N/A Rain Rain Showers
8:06 AM 60.8 °F 60.8 °F 100% 29.80 in - SW 11.5 mph - N/A Rain Light Rain Showers
8:18 AM 60.8 °F 60.8 °F 100% 29.80 in 3.7 mi SW 11.5 mph - N/A Rain Light Rain
8:25 AM 60.8 °F 59.0 °F 94% 29.80 in 5.0 mi SW 13.8 mph - N/A Rain Light Rain
8:29 AM 60.8 °F 59.0 °F 94% 29.80 in 6.2 mi SW 12.7 mph - N/A   Drizzle
8:37 AM 60.8 °F 59.0 °F 94% 29.80 in 6.2 mi SW 9.2 mph - N/A Rain Light Rain
8:38 AM 60.8 °F 59.0 °F 94% 29.80 in 4.3 mi SW 9.2 mph - N/A Rain Light Rain
8:45 AM 60.8 °F 59.0 °F 94% 29.80 in 3.7 mi SW 9.2 mph - N/A Rain Light Rain
8:55 AM 60.8 °F 59.0 °F 94% 29.80 in 3.7 mi SW 10.4 mph - N/A   Heavy Drizzle
8:59 AM 60.8 °F 59.0 °F 94% 29.80 in 5.0 mi SW 11.5 mph - N/A   Light Drizzle
9:03 AM 60.8 °F 59.0 °F 94% 29.80 in 4.3 mi SW 11.5 mph - N/A   Light Drizzle
9:08 AM 60.8 °F 59.0 °F 94% 29.80 in 4.3 mi SW 10.4 mph - N/A   Mostly Cloudy
9:14 AM 60.8 °F 59.0 °F 94% 29.80 in 3.1 mi SSW 10.4 mph - N/A   Drizzle
9:18 AM 60.8 °F 59.0 °F 94% 29.80 in 3.1 mi SW 10.4 mph - N/A   Drizzle
9:25 AM 60.8 °F 59.0 °F 94% 29.80 in 6.2 mi SW 10.4 mph - N/A   Mostly Cloudy
9:29 AM 60.8 °F 59.0 °F 94% 29.80 in 6.2 mi SW 11.5 mph - N/A   Overcast
9:33 AM 60.8 °F 59.0 °F 94% 29.80 in 6.2 mi SW 11.5 mph - N/A   Mostly Cloudy
9:55 AM 60.8 °F 59.0 °F 94% 29.80 in 6.2 mi SW 12.7 mph - N/A   Light Drizzle
10:08 AM 60.8 °F 59.0 °F 94% 29.80 in 6.2 mi SW 13.8 mph - N/A   Mostly Cloudy
10:25 AM 62.6 °F 59.0 °F 88% 29.80 in 6.2 mi SW 11.5 mph - N/A   Mostly Cloudy
10:55 AM 62.6 °F 59.0 °F 88% 29.80 in 6.2 mi SW 11.5 mph - N/A   Mostly Cloudy
11:25 AM 60.8 °F 59.0 °F 94% 29.80 in 6.2 mi SW 13.8 mph - N/A   Overcast
11:55 AM 62.6 °F 59.0 °F 88% 29.80 in 6.2 mi WSW 17.3 mph - N/A   Overcast
12:03 PM 62.6 °F 59.0 °F 88% 29.80 in 5.0 mi WSW 17.3 mph - N/A   Mostly Cloudy
12:08 PM 62.6 °F 59.0 °F 88% 29.80 in 6.2 mi WSW 18.4 mph - N/A Rain Light Rain
12:14 PM 60.8 °F 59.0 °F 94% 29.80 in 2.8 mi WSW 18.4 mph - N/A Rain Light Rain
12:17 PM 60.8 °F 59.0 °F 94% 29.80 in 6.2 mi WSW 18.4 mph - N/A   Heavy Drizzle
12:22 PM 60.8 °F 59.0 °F 94% 29.80 in 4.3 mi West 17.3 mph - N/A   Drizzle
12:24 PM 59.0 °F 59.0 °F 100% 29.80 in 3.7 mi West 18.4 mph 31.1 mph N/A   Overcast
12:25 PM 60.8 °F 59.0 °F 94% 29.80 in 4.3 mi West 17.3 mph - N/A   Drizzle
12:55 PM 59.0 °F 57.2 °F 94% 29.83 in 6.2 mi NW 15.0 mph - N/A   Mostly Cloudy
1:25 PM 60.8 °F 57.2 °F 88% 29.86 in 6.2 mi NW 15.0 mph - N/A   Mostly Cloudy
1:55 PM 59.0 °F 57.2 °F 94% 29.86 in 6.2 mi NW 13.8 mph - N/A   Mostly Cloudy
2:25 PM 60.8 °F 55.4 °F 82% 29.86 in 6.2 mi NNW 15.0 mph - N/A   Mostly Cloudy
2:55 PM 62.6 °F 53.6 °F 72% 29.89 in 6.2 mi North 12.7 mph - N/A   Overcast
3:25 PM 60.8 °F 53.6 °F 77% 29.89 in 6.2 mi NNW 10.4 mph - N/A   Mostly Cloudy
3:55 PM 62.6 °F 53.6 °F 72% 29.89 in 6.2 mi NW 11.5 mph - N/A   Overcast
4:25 PM 62.6 °F 51.8 °F 68% 29.89 in 6.2 mi NNW 12.7 mph - N/A   Overcast
4:55 PM 62.6 °F 51.8 °F 68% 29.89 in 6.2 mi NW 12.7 mph - N/A   Mostly Cloudy
5:25 PM 60.8 °F 50.0 °F 68% 29.89 in 6.2 mi NNW 10.4 mph - N/A   Overcast
5:55 PM 60.8 °F 50.0 °F 68% 29.92 in 6.2 mi NNW 10.4 mph - N/A   Overcast
6:25 PM 60.8 °F 50.0 °F 68% 29.92 in 6.2 mi NNW 10.4 mph - N/A   Overcast
6:55 PM 59.0 °F 50.0 °F 72% 29.92 in 6.2 mi North 5.8 mph - N/A   Overcast
7:25 PM 59.0 °F 50.0 °F 72% 29.92 in 6.2 mi NNW 5.8 mph - N/A   Mostly Cloudy
7:55 PM 59.0 °F 50.0 °F 72% 29.95 in 6.2 mi North 4.6 mph - N/A   Overcast
8:25 PM 57.2 °F 50.0 °F 77% 29.95 in 6.2 mi NW 3.5 mph - N/A   Mostly Cloudy
8:55 PM 57.2 °F 50.0 °F 77% 29.95 in 6.2 mi NW 4.6 mph - N/A   Overcast
9:25 PM 53.6 °F 50.0 °F 88% 29.95 in 6.2 mi WNW 2.3 mph - N/A   Partly Cloudy
9:55 PM 51.8 °F 50.0 °F 94% 29.95 in 6.2 mi NW 3.5 mph - N/A   Mostly Cloudy
10:25 PM 51.8 °F 50.0 °F 94% 29.98 in 6.2 mi NW 2.3 mph - N/A   Mostly Cloudy
10:55 PM 50.0 °F 48.2 °F 94% 29.98 in 6.2 mi NW 2.3 mph - N/A   Mostly Cloudy
11:25 PM 51.8 °F 50.0 °F 94% 29.98 in 6.2 mi NW 1.2 mph - N/A   Overcast
11:55 PM 51.8 °F 50.0 °F 94% 29.98 in 6.2 mi SSW 1.2 mph - N/A   Scattered Clouds